Location: Pallagorio
(39.3000°N, 16.9000°E)
Time: 21:19:41
(UTC+00:00)

ERS-2 - Pass Details

Date: 24 January 2021
Orbit: 492 x 497 km, 98.6° (Epoch: 03 March)

Event Time Altitude Azimuth Distance (km) Brightness Sun altitude
Exits shadow 17:50:15 - 359° (N) 2,093 5.2 -20.6°
Reaches altitude 10° 17:51:16 10° 354° (N) 1,694 4.8 -20.8°
Maximum altitude 17:54:33 33° 289° (WNW) 850 3.8 -21.4°
Drops below altitude 10° 17:57:48 10° 224° (SW) 1,681 5.5 -22.0°
Sets 17:59:59 0° 215° (SW) 2,557 6.3 -22.4°
